Location: Unspecified
(0.0000°N, 0.0000°E)
Time: 02:33:43
(UTC+00:00)

Tiangong - Visible Passes

Search period start: 17 March 2026 00:00
Search period end: 27 March 2026 00:00
Orbit: 380 x 389 km, 41.5° (Epoch: 16 March)

Date Brightness Start Highest point End Pass type
(mag) Time Alt. Az. Time Alt. Az. Time Alt. Az.
23 Mar 0.2 18:54:12 10° SSE 18:54:46 11° SE 18:54:46 11° SE visible
24 Mar -1.3 19:28:34 10° SW 19:30:50 44° SW 19:30:50 44° SW visible
25 Mar -1.0 18:29:01 10° SSW 18:31:43 26° SE 18:34:25 10° ENE visible
25 Mar 1.5 20:06:54 10° WNW 20:07:01 10° WNW 20:07:01 10° WNW visible
26 Mar -0.5 19:05:30 10° WSW 19:08:21 32° NW 19:10:58 11° NNE visible
